www.pogodaiklimat.ru

Погода и климат >> Архив погоды >> Украина >> Винница


АРХИВ ПОГОДЫ в Виннице

Время (UTC), дата Ветер
(напр.,м/с)
 
Видим.   Явления Облачность Т
(С)
Тd
(С)
f
(%)
Тe
(С)
Тes
(С)
Комфортность P
(гПа)
Po
(гПа)
Тmin
(С)
Tmax
(С)
R
(мм)
R24
(мм)
S
(см)
06 18.09 ЮЗ 3 13 км 3/0
[Ci fib]
+14.3 +8.5 68 +13 +15 тепло 1024.9 989.5 +9.6
09 18.09 ЮЗ 3 13 км 6/0
[Ci fib]
+19.8 +9.0 50 +21 +28 комфорт 1024.3 989.6
12 18.09 З 3 13 км 5/0
[Ci fib]
+22.4 +9.7 44 +24 +29 комфорт 1023.0 988.7
15 18.09 З 2 13 км 8/0
[Ci fib]
+22.1 +10.0 46 +24 +24 комфорт 1022.2 987.9
18 18.09 Ю 2 5000 м дым 9/0
[Ci fib]
+18.1 +10.9 63 +19 +19 тепло 1022.7 987.9 +23.4
21 18.09 Ю 2 13 км 6/0
[Ci fib]
+16.2 +10.2 68 +16 +16 тепло 1023.1 988.0
00 19.09 Ю 2 13 км 4/0
[Ci fib]
+15.4 +9.4 67 +15 +15 тепло 1023.0 987.9
03 19.09 Ю 2 13 км 3/0
[Ci fib]
+12.8 +8.8 77 +12 +12 тепло 1023.9 988.4
06 19.09 Ю 2 13 км 3/0
[Ci fib]
+15.8 +10.7 72 +16 +18 тепло 1023.9 988.8 +11.6
09 19.09 ЮЗ 3 13 км 3/0
[Ci fib]
+22.1 +10.6 48 +24 +31 комфорт 1023.5 989.1
12 19.09 ЮЗ 5 13 км 3/0
[Ci fib]
+24.4 +11.3 44 +26 +29 жарко 1022.1 988.0
15 19.09 ЮЗ 2 13 км ясно +24.3 +10.4 41 +25 +26 комфорт 1021.3 987.3
18 19.09 Ю 2 13 км ясно +20.7 +10.6 52 +23 +23 комфорт 1021.6 987.1 +25.1
21 19.09 Ю 2 13 км ясно +17.5 +9.8 61 +18 +18 тепло 1022.2 987.3
00 20.09 ЮЗ 2 13 км ясно +15.4 +9.2 67 +15 +15 тепло 1022.2 987.1
03 20.09 ЮЗ 2 13 км ясно +14.5 +9.3 71 +14 +14 тепло 1022.4 987.2
06 20.09 ЮЗ 2 13 км 3/0
[Ci fib]
+16.1 +10.4 69 +16 +18 тепло 1022.6 987.6 +13.9
09 20.09 З 2 13 км 3/0
[Ac trans]
+22.7 +11.0 48 +25 +32 комфорт 1021.9 987.7
12 20.09 З 2 13 км 3/0
[Ci fib]
+25.4 +10.9 40 +26 +33 жарко 1020.6 986.7
15 20.09 ЮЗ 2 13 км 3/0
[Ac trans]
+24.6 +11.3 43 +26 +26 жарко 1019.9 985.9
18 20.09 штиль 0 13 км 6/0
[Ac trans Ci fib]
+21.5 +11.7 54 +24 +24 комфорт 1020.3 986.0 +26.6
21 20.09 штиль 0 13 км 3/0
[Ci fib]
+16.0 +12.7 81 +16 +16 тепло 1021.0 986.0
00 21.09 штиль 0 13 км 3/0
[Ci fib]
+15.0 +12.3 84 +15 +15 тепло 1021.2 985.9
03 21.09 штиль 0 13 км 3/0
[Ci fib]
+14.8 +10.0 73 +15 +15 тепло 1021.0 985.9
06 21.09 штиль 0 13 км ясно +17.0 +13.0 77 +17 +20 тепло 1020.9 986.1 +12.7
09 21.09 Ю 3 13 км ясно +24.8 +9.7 38 +26 +32 жарко 1020.1 986.1
12 21.09 Ю 2 13 км ясно +26.5 +8.8 33 +27 +34 жарко 1018.5 984.8
15 21.09 ЮВ 4 13 км ясно +25.4 +7.6 32 +25 +26 комфорт 1017.3 983.5
18 21.09 Ю 2 13 км ясно +20.0 +9.9 52 +22 +22 комфорт 1017.6 983.2 +27.4
21 21.09 Ю 3 13 км ясно +17.4 +8.6 56 +17 +17 тепло 1017.4 982.7
00 22.09 Ю 3 13 км ясно +15.4 +7.6 60 +15 +15 тепло 1017.0 982.0
03 22.09 Ю 3 13 км ясно +14.6 +8.0 65 +14 +14 тепло 1016.0 981.0
06 22.09 Ю 3 13 км ясно +17.1 +7.1 52 +17 +19 тепло 1015.6 980.9 +14.4
09 22.09 Ю 4 13 км 3/0
[Ci fib]
+22.3 +7.0 37 +23 +28 комфорт 1015.0 980.9
12 22.09 ЮЗ 4 13 км 6/0
[Ac trans Ci fib]
+25.3 +9.4 37 +26 +29 жарко 1013.5 979.8
15 22.09 СЗ 6 13 км 9/4 600 м
[Cb cap Ac trans]
+19.5 +11.8 61 +20 +21 тепло 1014.4 980.1
18 22.09 СЗ 8 13 км 10/5 570 м
[Cb cap Ac und]
+13.5 +6.4 62 +11 +11 по сезону 1017.6 982.4 +25.8
21 22.09 С 5 13 км слабый ливневой дождь 10/6 500 м
[Cb cap Ac und]
+9.3 +8.6 95 +6 +6 прохладно 1018.2 982.5
00 23.09 СЗ 3 13 км в посл. час ливневой дождь 10/4 600 м
[Cb cap Ac und]
+8.5 +7.4 93 +6 +6 по сезону 1019.9 984.0
03 23.09 З 2 13 км 10/5 540 м
[Cb cap Ac und]
+6.8 +6.4 97 +4 +4 прохладно 1019.9 983.8
06 23.09 ЮЗ 3 13 км 9/3 600 м
[Sc Ac trans]
+8.9 +7.4 90 +6 +7 прохладно 1019.3 983.5 +6.4 0.9
09 23.09 ЮЗ 4 13 км 8/3 600 м
[Sc Ac trans]
+13.1 +8.5 74 +11 +14 по сезону 1019.5 984.2
12 23.09 З 5 13 км 5/5 930 м
[Sc]
+15.7 +6.7 55 +15 +16 по сезону 1018.8 983.8
15 23.09 ЮЗ 2 13 км 6/3 600 м
[Sc Ac trans]
+15.0 +6.5 57 +15 +15 по сезону 1017.5 982.5
18 23.09 ЮЗ 2 13 км 3/0
[Ac trans]
+11.9 +7.1 72 +11 +11 по сезону 1017.3 981.9 +16.3
21 23.09 Ю 4 13 км 8/0
[Ac trans Ci fib]
+11.0 +6.4 73 +9 +9 по сезону 1014.9 979.5
00 24.09 Ю 7 13 км 9/3 600 м
[Sc Ac trans]
+11.0 +5.3 68 +8 +8 по сезону 1010.7 975.4
03 24.09 Ю 6 13 км 9/4 600 м
[Sc Ac trans]
+11.6 +7.0 73 +9 +9 по сезону 1007.3 972.2
06 24.09 Ю 4 6000 м слабый ливневой дождь 10/6 630 м
[Cb cap Ac und]
+11.7 +10.4 92 +9 +10 по сезону 1005.6 970.6 +10.7 0.7
09 24.09 З 7 13 км в посл. час ливневой дождь 10/8 540 м
[Cb cap Ac und]
+13.8 +12.0 89 +11 +11 по сезону 1006.9 972.1
12 24.09 З 7 13 км в посл. час ливневой дождь 10/5 570 м
[Cb cap Ac und]
+10.2 +6.5 78 +7 +7 очень
холодно
1010.7 975.3
15 24.09 СЗ 6 13 км 9/4 600 м
[Cb cap Ac trans]
+9.8 +5.5 75 +6 +6 очень
холодно
1012.1 976.6
18 24.09 З 5 13 км 8/0
[Ac trans Ci fib]
+8.6 +5.3 80 +5 +5 холодно 1014.0 978.3 +14.4 4
21 24.09 З 5 13 км 6/0
[Ac trans]
+7.6 +4.1 78 +4 +4 холодно 1015.6 979.7
00 25.09 З 6 13 км 4/0
[Ac trans]
+6.7 +3.9 82 +2 +2 холодно 1016.2 980.2
03 25.09 З 6 13 км 6/0
[Ac trans]
+6.4 +4.1 85 +2 +2 холодно 1017.1 981.0

 

Местоположение метеостанции Винница (Винницкая область, Украина): широта 49.23 долгота 28.60 высота над уровнем моря 298 м.

В архиве по умолчанию представлена погода в Виннице за последнюю неделю. Архивные данные за месяц целиком и за предыдущие месяцы, начиная с января 2011 года, Вы можете получить, выбрав интересующий диапазон дат из раскрывающегося списка и нажав кнопку "Ввод!".


*Определитесь, кто Вы:
робот инопланетянин человек

Внимание! Время в таблицах - всемирное. Для получения местного времени необходимо прибавить поправку, которая в Виннице равна 2 ч.

Смотрите также архив погоды в соседних городах и на ближайших метеорологических станциях:

Погода в Жмеринке (Винницкая область, Украина) (42 км)
Погода в Белополе (Винницкая область, Украина) (70 км)
Погода в Гайсине (Винницкая область, Украина) (75 км)
Погода в Хмельнике (Винницкая область, Украина) (76 км)
Погода в Могилев-Подольском (Винницкая область, Украина) (105 км)
Погода в Новой Ушице (Хмельницкая область, Украина) (106 км)
Погода в Жашкове (Черкасская область, Украина) (109 км)
Погода в Житомире (Житомирская область, Украина) (112 км)
Погода в Новоднестровске (Черновицкая область, Украина) (112 км)
Погода в Сороках (Молдова) (117 км)

Пояснения к столбцам:

Ветер - указаны скорость ветра в м/с - средняя за 10 мин, порывы в срок и между сроками (в фигурных скобках) и направление, откуда дует ветер: С - северный, СВ - северо-восточный, В - восточный, ЮВ - юго-восточный, Ю - южный, ЮЗ - юго-западный, З - западный, СЗ - северо-западный.
Видимость - горизонтальная дальность видимости в метрах или километрах. При видимости от 1 до 10 км при отсутствии осадков обычно наблюдается дымка, при ухудшении видимости до 1 км и менее - туман. В сухую погоду видимость может ухудшаться дымом, пылью или мглою.
Явления - указаны атмосферные явления, наблюдавшиеся в срок или в последний час перед сроком; фигурными скобками обозначены явления, наблюдавшиеся между сроками (за 1-3 часа до срока); квадратными скобками обозначены град или гололедные отложения с указанием их диаметра в мм.
Облачность - указаны через наклонную черту общая и нижняя облачность в баллах и высота нижней границы облаков в метрах; квадратными скобками обозначены формы облаков: Ci - перистые, Cs - перисто-слоистые, Cc - перисто-кучевые, Ac - высококучевые, As - высокослоистые, Sc - слоисто-кучевые, Ns - слоисто-дождевые, Cu - кучевые, Cb - кучево-дождевые. Подробнее классификацию облаков см. в Атласе облаков (PDF).
T - Температура воздуха - температура, измеренная на высоте 2 м над землей.
Td - Температура точки росы - температура, при понижении до которой содержащийся в воздухе водяной пар достигнет насыщения.
f - Относительная влажность воздуха - влажноcть воздуха, измеренная на высоте 2 м над землей.
Te - Эффективная температура - температура, которую ощущает одетый по сезону человек в тени. Характеристика душности погоды. При расчете учитывается влияние влажности воздуха и скорости ветра на теплоощущения человека.
Tes - Эффективная температура на солнце - температура, которую ощущает человек, с поправкой на солнечный нагрев. Характеристика знойности погоды. Зависит от высоты солнца над горизонтом, облачности и скорости ветра. Ночью, в пасмурную погоду, а также при ветре 12 м/с и более поправка равна нулю.
P - Атмосферное давление - приведенное к уровню моря атмосферное давление.
Po - Атмосферное давление - измеренное на уровне метеостанции атмосферное давление.
Tmin - Минимальная температура - минимум температуры воздуха на высоте 2 м над землей.
Tmax - Максимальная температура - максимум температуры воздуха на высоте 2 м над землей.
R - Количество осадков - Количество выпавших осадков за период времени, мм. При наведении курсора мыши на число - период времени, за который выпало указанное количество осадков.
R24 - Количество осадков - Количество выпавших осадков за 24 часа, мм.
S - Снежный покров - Высота снежного покрова, см. При наведении курсора мыши на число - состояние снежного покрова и степень покрытия местности в баллах.